Year,Month,Day,Hour,Minute,Value (Times are PST for temperature in C)
2009,09,24,00,00,11.70
2009,09,24,00,01,11.70
2009,09,24,00,02,11.60
2009,09,24,00,03,11.60
2009,09,24,00,04,11.60
2009,09,24,00,05,11.60
2009,09,24,00,06,11.60
2009,09,24,00,07,11.40
2009,09,24,00,08,11.40
2009,09,24,00,09,11.40
2009,09,24,00,10,11.40
2009,09,24,00,11,11.40
2009,09,24,00,12,11.30
2009,09,24,00,13,11.30
2009,09,24,00,14,11.30
2009,09,24,00,15,11.30
2009,09,24,00,16,11.20
2009,09,24,00,17,11.20
2009,09,24,00,18,11.20
2009,09,24,00,19,11.20
2009,09,24,00,20,11.20
2009,09,24,00,21,11.20
2009,09,24,00,22,11.10
2009,09,24,00,23,11.10
2009,09,24,00,24,11.10
2009,09,24,00,25,11.10
2009,09,24,00,26,11.10
2009,09,24,00,27,11.10
2009,09,24,00,28,11.10
2009,09,24,00,29,11.00
2009,09,24,00,30,10.90
2009,09,24,00,31,10.90
2009,09,24,00,32,10.90
2009,09,24,00,33,10.90
2009,09,24,00,34,10.90
2009,09,24,00,35,10.90
2009,09,24,00,36,10.90
2009,09,24,00,37,10.80
2009,09,24,00,38,10.80
2009,09,24,00,39,10.80
2009,09,24,00,40,10.80
2009,09,24,00,41,10.70
2009,09,24,00,42,10.70
2009,09,24,00,43,10.70
2009,09,24,00,44,10.70
2009,09,24,00,45,10.60
2009,09,24,00,46,10.60
2009,09,24,00,47,10.60
2009,09,24,00,48,10.60
2009,09,24,00,49,10.60
2009,09,24,00,50,10.60
2009,09,24,00,51,10.60
2009,09,24,00,52,10.60
2009,09,24,00,53,10.60
2009,09,24,00,54,10.50
2009,09,24,00,55,10.40
2009,09,24,00,56,10.40
2009,09,24,00,57,10.40
2009,09,24,00,58,10.40
2009,09,24,00,59,10.40
2009,09,24,01,00,10.40
2009,09,24,01,01,10.40
2009,09,24,01,02,10.40
2009,09,24,01,03,10.40
2009,09,24,01,04,10.40
2009,09,24,01,05,10.40
2009,09,24,01,06,10.40
2009,09,24,01,07,10.40
2009,09,24,01,08,10.40
2009,09,24,01,09,10.40
2009,09,24,01,10,10.40
2009,09,24,01,11,10.40
2009,09,24,01,12,10.40
2009,09,24,01,13,10.40
2009,09,24,01,14,10.40
2009,09,24,01,15,10.40
2009,09,24,01,16,10.40
2009,09,24,01,17,10.40
2009,09,24,01,18,10.40
2009,09,24,01,19,10.40
2009,09,24,01,20,10.40
2009,09,24,01,21,10.30
2009,09,24,01,22,10.30
2009,09,24,01,23,10.30
2009,09,24,01,24,10.30
2009,09,24,01,25,10.30
2009,09,24,01,26,10.30
2009,09,24,01,27,10.30
2009,09,24,01,28,10.20
2009,09,24,01,29,10.20
2009,09,24,01,30,10.20
2009,09,24,01,31,10.20
2009,09,24,01,32,10.10
2009,09,24,01,33,10.10
2009,09,24,01,34,10.10
2009,09,24,01,35,10.10
2009,09,24,01,36,10.10
2009,09,24,01,37,10.10
2009,09,24,01,38,10.10
2009,09,24,01,39,10.10
2009,09,24,01,40,10.00
2009,09,24,01,41,9.90
2009,09,24,01,42,9.90
2009,09,24,01,43,9.90
2009,09,24,01,44,9.90
2009,09,24,01,45,9.90
2009,09,24,01,46,9.90
2009,09,24,01,47,9.90
2009,09,24,01,48,9.90
2009,09,24,01,49,9.80
2009,09,24,01,50,9.80
2009,09,24,01,51,9.80
2009,09,24,01,52,9.80
2009,09,24,01,53,9.80
2009,09,24,01,54,9.70
2009,09,24,01,55,9.70
2009,09,24,01,56,9.70
2009,09,24,01,57,9.70
2009,09,24,01,58,9.70
2009,09,24,01,59,9.70
2009,09,24,02,00,9.70
2009,09,24,02,01,9.70
2009,09,24,02,02,9.70
2009,09,24,02,03,9.70
2009,09,24,02,04,9.70
2009,09,24,02,05,9.70
2009,09,24,02,06,9.70
2009,09,24,02,07,9.70
2009,09,24,02,08,9.70
2009,09,24,02,09,9.70
2009,09,24,02,10,9.70
2009,09,24,02,11,9.60
2009,09,24,02,12,9.60
2009,09,24,02,13,9.60
2009,09,24,02,14,9.50
2009,09,24,02,15,9.50
2009,09,24,02,16,9.50
2009,09,24,02,17,9.40
2009,09,24,02,18,9.40
2009,09,24,02,19,9.40
2009,09,24,02,20,9.40
2009,09,24,02,21,9.40
2009,09,24,02,22,9.40
2009,09,24,02,23,9.40
2009,09,24,02,24,9.40
2009,09,24,02,25,9.40
2009,09,24,02,26,9.40
2009,09,24,02,27,9.40
2009,09,24,02,28,9.40
2009,09,24,02,29,9.40
2009,09,24,02,30,9.40
2009,09,24,02,31,9.40
2009,09,24,02,32,9.40
2009,09,24,02,33,9.40
2009,09,24,02,34,9.40
2009,09,24,02,35,9.40
2009,09,24,02,36,9.40
2009,09,24,02,37,9.40
2009,09,24,02,38,9.40
2009,09,24,02,39,9.40
2009,09,24,02,40,9.30
2009,09,24,02,41,9.30
2009,09,24,02,42,9.30
2009,09,24,02,43,9.30
2009,09,24,02,44,9.30
2009,09,24,02,45,9.30
2009,09,24,02,46,9.30
2009,09,24,02,47,9.30
2009,09,24,02,48,9.30
2009,09,24,02,49,9.30
2009,09,24,02,50,9.20
2009,09,24,02,51,9.20
2009,09,24,02,52,9.20
2009,09,24,02,53,9.20
2009,09,24,02,54,9.20
2009,09,24,02,55,9.20
2009,09,24,02,56,9.20
2009,09,24,02,57,9.20
2009,09,24,02,58,9.10
2009,09,24,02,59,9.10
2009,09,24,03,00,9.10
2009,09,24,03,01,9.10
2009,09,24,03,02,9.10
2009,09,24,03,03,9.10
2009,09,24,03,04,9.10
2009,09,24,03,05,9.10
2009,09,24,03,06,9.10
2009,09,24,03,07,9.10
2009,09,24,03,08,9.10
2009,09,24,03,09,9.10
2009,09,24,03,10,9.00
2009,09,24,03,11,9.00
2009,09,24,03,12,9.00
2009,09,24,03,13,9.00
2009,09,24,03,14,9.00
2009,09,24,03,15,9.00
2009,09,24,03,16,9.10
2009,09,24,03,17,9.10
2009,09,24,03,18,9.20
2009,09,24,03,19,9.20
2009,09,24,03,20,9.20
2009,09,24,03,21,9.10
2009,09,24,03,22,9.10
2009,09,24,03,23,9.10
2009,09,24,03,24,9.10
2009,09,24,03,25,9.10
2009,09,24,03,26,9.10
2009,09,24,03,27,9.10
2009,09,24,03,28,9.10
2009,09,24,03,29,9.10
2009,09,24,03,30,9.10
2009,09,24,03,31,9.10
2009,09,24,03,32,9.10
2009,09,24,03,33,9.10
2009,09,24,03,34,9.00
2009,09,24,03,35,9.00
2009,09,24,03,36,9.00
2009,09,24,03,37,9.00
2009,09,24,03,38,8.90
2009,09,24,03,39,8.90
2009,09,24,03,40,8.90
2009,09,24,03,41,8.90
2009,09,24,03,42,8.90
2009,09,24,03,43,8.90
2009,09,24,03,44,8.90
2009,09,24,03,45,8.90
2009,09,24,03,46,8.90
2009,09,24,03,47,8.80
2009,09,24,03,48,8.90
2009,09,24,03,49,8.90
2009,09,24,03,50,8.90
2009,09,24,03,51,8.90
2009,09,24,03,52,8.90
2009,09,24,03,53,8.90
2009,09,24,03,54,8.90
2009,09,24,03,55,8.90
2009,09,24,03,56,8.90
2009,09,24,03,57,8.90
2009,09,24,03,58,8.80
2009,09,24,03,59,8.80
2009,09,24,04,00,8.80
2009,09,24,04,01,8.80
2009,09,24,04,02,8.80
2009,09,24,04,03,8.80
2009,09,24,04,04,8.70
2009,09,24,04,05,8.70
2009,09,24,04,06,8.70
2009,09,24,04,07,8.70
2009,09,24,04,08,8.70
2009,09,24,04,09,8.70
2009,09,24,04,10,8.70
2009,09,24,04,11,8.70
2009,09,24,04,12,8.70
2009,09,24,04,13,8.70
2009,09,24,04,14,8.70
2009,09,24,04,15,8.70
2009,09,24,04,16,8.70
2009,09,24,04,17,8.70
2009,09,24,04,18,8.70
2009,09,24,04,19,8.70
2009,09,24,04,20,8.70
2009,09,24,04,21,8.70
2009,09,24,04,22,8.70
2009,09,24,04,23,8.70
2009,09,24,04,24,8.70
2009,09,24,04,25,8.70
2009,09,24,04,26,8.70
2009,09,24,04,27,8.70
2009,09,24,04,28,8.70
2009,09,24,04,29,8.70
2009,09,24,04,30,8.70
2009,09,24,04,31,8.70
2009,09,24,04,32,8.70
2009,09,24,04,33,8.70
2009,09,24,04,34,8.70
2009,09,24,04,35,8.70
2009,09,24,04,36,8.70
2009,09,24,04,37,8.70
2009,09,24,04,38,8.70
2009,09,24,04,39,8.70
2009,09,24,04,40,8.70
2009,09,24,04,41,8.70
2009,09,24,04,42,8.70
2009,09,24,04,43,8.70
2009,09,24,04,44,8.70
2009,09,24,04,45,8.70
2009,09,24,04,46,8.70
2009,09,24,04,47,8.70
2009,09,24,04,48,8.70
2009,09,24,04,49,8.70
2009,09,24,04,50,8.70
2009,09,24,04,51,8.70
2009,09,24,04,52,8.70
2009,09,24,04,53,8.70
2009,09,24,04,54,8.70
2009,09,24,04,55,8.70
2009,09,24,04,56,8.70
2009,09,24,04,57,8.70
2009,09,24,04,58,8.70
2009,09,24,04,59,8.70
2009,09,24,05,00,8.70
2009,09,24,05,01,8.70
2009,09,24,05,02,8.70
2009,09,24,05,03,8.70
2009,09,24,05,04,8.70
2009,09,24,05,05,8.70
2009,09,24,05,06,8.70
2009,09,24,05,07,8.70
2009,09,24,05,08,8.70
2009,09,24,05,09,8.70
2009,09,24,05,10,8.70
2009,09,24,05,11,8.70
2009,09,24,05,12,8.70
2009,09,24,05,13,8.70
2009,09,24,05,14,8.70
2009,09,24,05,15,8.80
2009,09,24,05,16,8.80
2009,09,24,05,17,8.80
2009,09,24,05,18,8.80
2009,09,24,05,19,8.80
2009,09,24,05,20,8.80
2009,09,24,05,21,8.70
2009,09,24,05,22,8.70
2009,09,24,05,23,8.70
2009,09,24,05,24,8.70
2009,09,24,05,25,8.70
2009,09,24,05,26,8.70
2009,09,24,05,27,8.70
2009,09,24,05,28,8.70
2009,09,24,05,29,8.70
2009,09,24,05,30,8.70
2009,09,24,05,31,8.70
2009,09,24,05,32,8.70
2009,09,24,05,33,8.70
2009,09,24,05,34,8.70
2009,09,24,05,35,8.70
2009,09,24,05,36,8.70
2009,09,24,05,37,8.70
2009,09,24,05,38,8.70
2009,09,24,05,39,8.70
2009,09,24,05,40,8.70
2009,09,24,05,41,8.70
2009,09,24,05,42,8.70
2009,09,24,05,43,8.70
2009,09,24,05,44,8.70
2009,09,24,05,45,8.70
2009,09,24,05,46,8.70
2009,09,24,05,47,8.70
2009,09,24,05,48,8.70
2009,09,24,05,49,8.70
2009,09,24,05,50,8.60
2009,09,24,05,51,8.60
2009,09,24,05,52,8.60
2009,09,24,05,53,8.60
2009,09,24,05,54,8.60
2009,09,24,05,55,8.50
2009,09,24,05,56,8.50
2009,09,24,05,57,8.50
2009,09,24,05,58,8.50
2009,09,24,05,59,8.50
2009,09,24,06,00,8.40
2009,09,24,06,01,8.40
2009,09,24,06,02,8.40
2009,09,24,06,03,8.40
2009,09,24,06,04,8.40
2009,09,24,06,05,8.40
2009,09,24,06,06,8.40
2009,09,24,06,07,8.40
2009,09,24,06,08,8.40
2009,09,24,06,09,8.30
2009,09,24,06,10,8.30
2009,09,24,06,11,8.30
2009,09,24,06,12,8.30
2009,09,24,06,13,8.30
2009,09,24,06,14,8.20
2009,09,24,06,15,8.20
2009,09,24,06,16,8.20
2009,09,24,06,17,8.20
2009,09,24,06,18,8.20
2009,09,24,06,19,8.20
2009,09,24,06,20,8.20
2009,09,24,06,21,8.20
2009,09,24,06,22,8.20
2009,09,24,06,23,8.20
2009,09,24,06,24,8.20
2009,09,24,06,25,8.20
2009,09,24,06,26,8.10
2009,09,24,06,27,8.10
2009,09,24,06,28,8.10
2009,09,24,06,29,8.10
2009,09,24,06,30,8.10
2009,09,24,06,31,8.10
2009,09,24,06,32,8.10
2009,09,24,06,33,8.10
2009,09,24,06,34,8.10
2009,09,24,06,35,8.10
2009,09,24,06,36,8.10
2009,09,24,06,37,8.10
2009,09,24,06,38,8.10
2009,09,24,06,39,8.10
2009,09,24,06,40,8.10
2009,09,24,06,41,8.10
2009,09,24,06,42,8.00
2009,09,24,06,43,8.00
2009,09,24,06,44,8.00
2009,09,24,06,45,8.00
2009,09,24,06,46,8.00
2009,09,24,06,47,8.00
2009,09,24,06,48,8.00
2009,09,24,06,49,8.00
2009,09,24,06,50,8.00
2009,09,24,06,51,8.00
2009,09,24,06,52,7.90
2009,09,24,06,53,7.90
2009,09,24,06,54,7.90
2009,09,24,06,55,7.90
2009,09,24,06,56,7.90
2009,09,24,06,57,7.90
2009,09,24,06,58,7.90
2009,09,24,06,59,7.90
2009,09,24,07,00,7.90
2009,09,24,07,01,8.00
2009,09,24,07,02,8.00
2009,09,24,07,03,8.00
2009,09,24,07,04,8.00
2009,09,24,07,05,8.00
2009,09,24,07,06,8.00
2009,09,24,07,07,8.00
2009,09,24,07,08,8.00
2009,09,24,07,09,8.00
2009,09,24,07,10,8.00
2009,09,24,07,11,8.00
2009,09,24,07,12,8.00
2009,09,24,07,13,8.00
2009,09,24,07,14,8.00
2009,09,24,07,15,8.00
2009,09,24,07,16,8.00
2009,09,24,07,17,8.00
2009,09,24,07,18,8.00
2009,09,24,07,19,8.00
2009,09,24,07,20,8.00
2009,09,24,07,21,8.00
2009,09,24,07,22,8.00
2009,09,24,07,23,8.00
2009,09,24,07,24,8.00
2009,09,24,07,25,8.00
2009,09,24,07,26,8.00
2009,09,24,07,27,8.00
2009,09,24,07,28,8.00
2009,09,24,07,29,8.00
2009,09,24,07,30,8.00
2009,09,24,07,31,8.00
2009,09,24,07,32,8.00
2009,09,24,07,33,8.00
2009,09,24,07,34,8.00
2009,09,24,07,35,8.10
2009,09,24,07,36,8.10
2009,09,24,07,37,8.10
2009,09,24,07,38,8.10
2009,09,24,07,39,8.10
2009,09,24,07,40,8.10
2009,09,24,07,41,8.10
2009,09,24,07,42,8.10
2009,09,24,07,43,8.10
2009,09,24,07,44,8.20
2009,09,24,07,45,8.20
2009,09,24,07,46,8.20
2009,09,24,07,47,8.20
2009,09,24,07,48,8.20
2009,09,24,07,49,8.20
2009,09,24,07,50,8.20
2009,09,24,07,51,8.20
2009,09,24,07,52,8.20
2009,09,24,07,53,8.20
2009,09,24,07,54,8.20
2009,09,24,07,55,8.30
2009,09,24,07,56,8.30
2009,09,24,07,57,8.30
2009,09,24,07,58,8.30
2009,09,24,07,59,8.30
2009,09,24,08,00,8.40
2009,09,24,08,01,8.40
2009,09,24,08,02,8.40
2009,09,24,08,03,8.40
2009,09,24,08,04,8.50
2009,09,24,08,05,8.50
2009,09,24,08,06,8.50
2009,09,24,08,07,8.50
2009,09,24,08,08,8.60
2009,09,24,08,09,8.60
2009,09,24,08,10,8.60
2009,09,24,08,11,8.70
2009,09,24,08,12,8.70
2009,09,24,08,13,8.80
2009,09,24,08,14,8.90
2009,09,24,08,15,9.00
2009,09,24,08,16,9.10
2009,09,24,08,17,9.20
2009,09,24,08,18,9.40
2009,09,24,08,19,9.50
2009,09,24,08,20,9.60
2009,09,24,08,21,9.80
2009,09,24,08,22,9.90
2009,09,24,08,23,10.00
2009,09,24,08,24,10.10
2009,09,24,08,25,10.20
2009,09,24,08,26,10.40
2009,09,24,08,27,10.40
2009,09,24,08,28,10.60
2009,09,24,08,29,10.60
2009,09,24,08,30,10.70
2009,09,24,08,31,10.80
2009,09,24,08,32,10.90
2009,09,24,08,33,10.90
2009,09,24,08,34,11.00
2009,09,24,08,35,11.10
2009,09,24,08,36,11.20
2009,09,24,08,37,11.30
2009,09,24,08,38,11.40
2009,09,24,08,39,11.50
2009,09,24,08,40,11.60
2009,09,24,08,41,11.70
2009,09,24,08,42,11.80
2009,09,24,08,43,11.80
2009,09,24,08,44,11.90
2009,09,24,08,45,12.00
2009,09,24,08,46,12.00
2009,09,24,08,47,12.10
2009,09,24,08,48,12.20
2009,09,24,08,49,12.30
2009,09,24,08,50,12.30
2009,09,24,08,51,12.40
2009,09,24,08,52,12.50
2009,09,24,08,53,12.50
2009,09,24,08,54,12.60
2009,09,24,08,55,12.70
2009,09,24,08,56,12.80
2009,09,24,08,57,12.80
2009,09,24,08,58,13.00
2009,09,24,08,59,13.00
2009,09,24,09,00,13.10
2009,09,24,09,01,13.20
2009,09,24,09,02,13.30
2009,09,24,09,03,13.40
2009,09,24,09,04,13.50
2009,09,24,09,05,13.60
2009,09,24,09,06,13.70
2009,09,24,09,07,13.80
2009,09,24,09,08,13.90
2009,09,24,09,09,14.00
2009,09,24,09,10,14.20
2009,09,24,09,11,14.20
2009,09,24,09,12,14.30
2009,09,24,09,13,14.40
2009,09,24,09,14,14.50
2009,09,24,09,15,14.50
2009,09,24,09,16,14.60
2009,09,24,09,17,14.60
2009,09,24,09,18,14.70
2009,09,24,09,19,14.70
2009,09,24,09,20,14.70
2009,09,24,09,21,14.80
2009,09,24,09,22,14.90
2009,09,24,09,23,15.00
2009,09,24,09,24,15.20
2009,09,24,09,25,15.30
2009,09,24,09,26,15.50
2009,09,24,09,27,15.60
2009,09,24,09,28,15.80
2009,09,24,09,29,15.90
2009,09,24,09,30,16.00
2009,09,24,09,31,16.10
2009,09,24,09,32,16.20
2009,09,24,09,33,16.40
2009,09,24,09,34,16.40
2009,09,24,09,35,16.50
2009,09,24,09,36,16.60
2009,09,24,09,37,16.70
2009,09,24,09,38,16.80
2009,09,24,09,39,16.90
2009,09,24,09,40,16.90
2009,09,24,09,41,17.00
2009,09,24,09,42,17.10
2009,09,24,09,43,17.20
2009,09,24,09,44,17.30
2009,09,24,09,45,17.30
2009,09,24,09,46,17.30
2009,09,24,09,47,17.30
2009,09,24,09,48,17.20
2009,09,24,09,49,17.20
2009,09,24,09,50,17.10
2009,09,24,09,51,17.10
2009,09,24,09,52,17.10
2009,09,24,09,53,17.10
2009,09,24,09,54,17.10
2009,09,24,09,55,17.10
2009,09,24,09,56,17.20
2009,09,24,09,57,17.20
2009,09,24,09,58,17.30
2009,09,24,09,59,17.40
2009,09,24,10,00,17.50
2009,09,24,10,01,17.60
2009,09,24,10,02,17.70
2009,09,24,10,03,17.80
2009,09,24,10,04,17.90
2009,09,24,10,05,17.90
2009,09,24,10,06,18.00
2009,09,24,10,07,18.10
2009,09,24,10,08,18.20
2009,09,24,10,09,18.20
2009,09,24,10,10,18.20
2009,09,24,10,11,18.20
2009,09,24,10,12,18.20
2009,09,24,10,13,18.20
2009,09,24,10,14,18.20
2009,09,24,10,15,18.20
2009,09,24,10,16,18.20
2009,09,24,10,17,18.20
2009,09,24,10,18,18.10
2009,09,24,10,19,18.00
2009,09,24,10,20,17.90
2009,09,24,10,21,17.90
2009,09,24,10,22,17.90
2009,09,24,10,23,17.90
2009,09,24,10,24,17.90
2009,09,24,10,25,17.90
2009,09,24,10,26,18.00
2009,09,24,10,27,18.10
2009,09,24,10,28,18.20
2009,09,24,10,29,18.30
2009,09,24,10,30,18.30
2009,09,24,10,31,18.50
2009,09,24,10,32,18.50
2009,09,24,10,33,18.50
2009,09,24,10,34,18.50
2009,09,24,10,35,18.50
2009,09,24,10,36,18.50
2009,09,24,10,37,18.50
2009,09,24,10,38,18.50
2009,09,24,10,39,18.50
2009,09,24,10,40,18.40
2009,09,24,10,41,18.20
2009,09,24,10,42,18.00
2009,09,24,10,43,17.90
2009,09,24,10,44,17.80
2009,09,24,10,45,17.70
2009,09,24,10,46,17.60
2009,09,24,10,47,17.60
2009,09,24,10,48,17.60
2009,09,24,10,49,17.60
2009,09,24,10,50,17.60
2009,09,24,10,51,17.60
2009,09,24,10,52,17.60
2009,09,24,10,53,17.50
2009,09,24,10,54,17.60
2009,09,24,10,55,17.60
2009,09,24,10,56,17.70
2009,09,24,10,57,17.80
2009,09,24,10,58,17.80
2009,09,24,10,59,17.80
2009,09,24,11,00,17.60
2009,09,24,11,01,17.50
2009,09,24,11,02,17.50
2009,09,24,11,03,17.40
2009,09,24,11,04,17.40
2009,09,24,11,05,17.50
2009,09,24,11,06,17.50
2009,09,24,11,07,17.60
2009,09,24,11,08,17.70
2009,09,24,11,09,17.70
2009,09,24,11,10,17.70
2009,09,24,11,11,17.70
2009,09,24,11,12,17.80
2009,09,24,11,13,17.80
2009,09,24,11,14,17.70
2009,09,24,11,15,17.60
2009,09,24,11,16,17.60
2009,09,24,11,17,17.60
2009,09,24,11,18,17.60
2009,09,24,11,19,17.70
2009,09,24,11,20,17.80
2009,09,24,11,21,17.90
2009,09,24,11,22,18.00
2009,09,24,11,23,18.10
2009,09,24,11,24,18.10
2009,09,24,11,25,18.00
2009,09,24,11,26,17.90
2009,09,24,11,27,17.80
2009,09,24,11,28,17.80
2009,09,24,11,29,17.80
2009,09,24,11,30,17.80
2009,09,24,11,31,17.80
2009,09,24,11,32,17.90
2009,09,24,11,33,18.00
2009,09,24,11,34,18.10
2009,09,24,11,35,18.10
2009,09,24,11,36,18.00
2009,09,24,11,37,18.00
2009,09,24,11,38,17.90
2009,09,24,11,39,18.00
2009,09,24,11,40,17.90
2009,09,24,11,41,17.90
2009,09,24,11,42,17.90
2009,09,24,11,43,17.90
2009,09,24,11,44,17.90
2009,09,24,11,45,17.90
2009,09,24,11,46,17.90
2009,09,24,11,47,17.90
2009,09,24,11,48,17.90
2009,09,24,11,49,17.80
2009,09,24,11,50,17.80
2009,09,24,11,51,17.80
2009,09,24,11,52,17.80
2009,09,24,11,53,17.70
2009,09,24,11,54,17.60
2009,09,24,11,55,17.50
2009,09,24,11,56,17.60
2009,09,24,11,57,17.60
2009,09,24,11,58,17.60
2009,09,24,11,59,17.60
2009,09,24,12,00,17.60
2009,09,24,12,01,17.70
2009,09,24,12,02,17.70
2009,09,24,12,03,17.70
2009,09,24,12,04,17.70
2009,09,24,12,05,17.70
2009,09,24,12,06,17.60
2009,09,24,12,07,17.70
2009,09,24,12,08,17.80
2009,09,24,12,09,17.90
2009,09,24,12,10,18.00
2009,09,24,12,11,18.10
2009,09,24,12,12,18.20
2009,09,24,12,13,18.20
2009,09,24,12,14,18.10
2009,09,24,12,15,17.90
2009,09,24,12,16,17.90
2009,09,24,12,17,17.90
2009,09,24,12,18,17.90
2009,09,24,12,19,17.80
2009,09,24,12,20,17.80
2009,09,24,12,21,17.90
2009,09,24,12,22,17.90
2009,09,24,12,23,17.90
2009,09,24,12,24,18.10
2009,09,24,12,25,18.20
2009,09,24,12,26,18.20
2009,09,24,12,27,18.30
2009,09,24,12,28,18.40
2009,09,24,12,29,18.40
2009,09,24,12,30,18.50
2009,09,24,12,31,18.60
2009,09,24,12,32,18.70
2009,09,24,12,33,18.70
2009,09,24,12,34,18.80
2009,09,24,12,35,18.80
2009,09,24,12,36,18.80
2009,09,24,12,37,18.80
2009,09,24,12,38,18.90
2009,09,24,12,39,18.90
2009,09,24,12,40,18.90
2009,09,24,12,41,18.90
2009,09,24,12,42,19.10
2009,09,24,12,43,19.00
2009,09,24,12,44,18.80
2009,09,24,12,45,18.60
2009,09,24,12,46,18.40
2009,09,24,12,47,18.20
2009,09,24,12,48,18.10
2009,09,24,12,49,18.10
2009,09,24,12,50,18.10
2009,09,24,12,51,18.20
2009,09,24,12,52,18.20
2009,09,24,12,53,18.30
2009,09,24,12,54,18.30
2009,09,24,12,55,18.20
2009,09,24,12,56,18.20
2009,09,24,12,57,18.20
2009,09,24,12,58,18.20
2009,09,24,12,59,18.30
2009,09,24,13,00,18.30
2009,09,24,13,01,18.20
2009,09,24,13,02,18.20
2009,09,24,13,03,18.20
2009,09,24,13,04,18.10
2009,09,24,13,05,18.10
2009,09,24,13,06,18.10
2009,09,24,13,07,18.10
2009,09,24,13,08,18.00
2009,09,24,13,09,18.10
2009,09,24,13,10,18.20
2009,09,24,13,11,18.30
2009,09,24,13,12,18.50
2009,09,24,13,13,18.50
2009,09,24,13,14,18.40
2009,09,24,13,15,18.40
2009,09,24,13,16,18.40
2009,09,24,13,17,18.40
2009,09,24,13,18,18.40
2009,09,24,13,19,18.40
2009,09,24,13,20,18.40
2009,09,24,13,21,18.40
2009,09,24,13,22,18.50
2009,09,24,13,23,18.50
2009,09,24,13,24,18.40
2009,09,24,13,25,18.40
2009,09,24,13,26,18.30
2009,09,24,13,27,18.30
2009,09,24,13,28,18.20
2009,09,24,13,29,18.20
2009,09,24,13,30,18.20
2009,09,24,13,31,18.30
2009,09,24,13,32,18.50
2009,09,24,13,33,18.50
2009,09,24,13,34,18.50
2009,09,24,13,35,18.50
2009,09,24,13,36,18.40
2009,09,24,13,37,18.20
2009,09,24,13,38,18.20
2009,09,24,13,39,18.20
2009,09,24,13,40,18.40
2009,09,24,13,41,18.50
2009,09,24,13,42,18.50
2009,09,24,13,43,18.50
2009,09,24,13,44,18.60
2009,09,24,13,45,18.70
2009,09,24,13,46,18.80
2009,09,24,13,47,18.90
2009,09,24,13,48,18.90
2009,09,24,13,49,18.90
2009,09,24,13,50,18.90
2009,09,24,13,51,18.90
2009,09,24,13,52,18.90
2009,09,24,13,53,18.90
2009,09,24,13,54,19.10
2009,09,24,13,55,19.10
2009,09,24,13,56,19.10
2009,09,24,13,57,19.10
2009,09,24,13,58,19.10
2009,09,24,13,59,19.10
2009,09,24,14,00,19.10
2009,09,24,14,01,19.10
2009,09,24,14,02,19.00
2009,09,24,14,03,18.90
2009,09,24,14,04,18.90
2009,09,24,14,05,18.90
2009,09,24,14,06,18.90
2009,09,24,14,07,18.90
2009,09,24,14,08,18.90
2009,09,24,14,09,18.90
2009,09,24,14,10,18.80
2009,09,24,14,11,18.70
2009,09,24,14,12,18.70
2009,09,24,14,13,18.70
2009,09,24,14,14,18.60
2009,09,24,14,15,18.60
2009,09,24,14,16,18.60
2009,09,24,14,17,18.70
2009,09,24,14,18,18.70
2009,09,24,14,19,18.70
2009,09,24,14,20,18.70
2009,09,24,14,21,18.70
2009,09,24,14,22,18.70
2009,09,24,14,23,18.80
2009,09,24,14,24,18.80
2009,09,24,14,25,18.80
2009,09,24,14,26,18.80
2009,09,24,14,27,18.80
2009,09,24,14,28,18.90
2009,09,24,14,29,18.90
2009,09,24,14,30,19.10
2009,09,24,14,31,19.10
2009,09,24,14,32,19.10
2009,09,24,14,33,19.10
2009,09,24,14,34,19.10
2009,09,24,14,35,19.10
2009,09,24,14,36,19.10
2009,09,24,14,37,19.10
2009,09,24,14,38,19.20
2009,09,24,14,39,19.20
2009,09,24,14,40,19.20
2009,09,24,14,41,19.20
2009,09,24,14,42,19.10
2009,09,24,14,43,19.10
2009,09,24,14,44,19.10
2009,09,24,14,45,19.20
2009,09,24,14,46,19.20
2009,09,24,14,47,19.20
2009,09,24,14,48,19.20
2009,09,24,14,49,19.20
2009,09,24,14,50,19.30
2009,09,24,14,51,19.40
2009,09,24,14,52,19.50
2009,09,24,14,53,19.50
2009,09,24,14,54,19.50
2009,09,24,14,55,19.60
2009,09,24,14,56,19.60
2009,09,24,14,57,19.50
2009,09,24,14,58,19.50
2009,09,24,14,59,19.50
2009,09,24,15,00,19.60
2009,09,24,15,01,19.60
2009,09,24,15,02,19.60
2009,09,24,15,03,19.50
2009,09,24,15,04,19.50
2009,09,24,15,05,19.50
2009,09,24,15,06,19.50
2009,09,24,15,07,19.30
2009,09,24,15,08,19.30
2009,09,24,15,09,19.30
2009,09,24,15,10,19.30
2009,09,24,15,11,19.40
2009,09,24,15,12,19.30
2009,09,24,15,13,19.20
2009,09,24,15,14,19.10
2009,09,24,15,15,19.10
2009,09,24,15,16,19.10
2009,09,24,15,17,19.20
2009,09,24,15,18,19.20
2009,09,24,15,19,19.20
2009,09,24,15,20,19.20
2009,09,24,15,21,19.20
2009,09,24,15,22,19.20
2009,09,24,15,23,19.20
2009,09,24,15,24,19.10
2009,09,24,15,25,19.10
2009,09,24,15,26,19.20
2009,09,24,15,27,19.20
2009,09,24,15,28,19.20
2009,09,24,15,29,19.30
2009,09,24,15,30,19.40
2009,09,24,15,31,19.40
2009,09,24,15,32,19.30
2009,09,24,15,33,19.40
2009,09,24,15,34,19.40
2009,09,24,15,35,19.60
2009,09,24,15,36,19.70
2009,09,24,15,37,19.60
2009,09,24,15,38,19.60
2009,09,24,15,39,19.70
2009,09,24,15,40,19.70
2009,09,24,15,41,19.70
2009,09,24,15,42,19.70
2009,09,24,15,43,19.60
2009,09,24,15,44,19.60
2009,09,24,15,45,19.50
2009,09,24,15,46,19.50
2009,09,24,15,47,19.50
2009,09,24,15,48,19.50
2009,09,24,15,49,19.50
2009,09,24,15,50,19.40
2009,09,24,15,51,19.40
2009,09,24,15,52,19.30
2009,09,24,15,53,19.20
2009,09,24,15,54,19.20
2009,09,24,15,55,19.20
2009,09,24,15,56,19.30
2009,09,24,15,57,19.30
2009,09,24,15,58,19.30
2009,09,24,15,59,19.30
2009,09,24,16,00,19.30
2009,09,24,16,01,19.30
2009,09,24,16,02,19.30
2009,09,24,16,03,19.40
2009,09,24,16,04,19.50
2009,09,24,16,05,19.60
2009,09,24,16,06,19.60
2009,09,24,16,07,19.70
2009,09,24,16,08,19.80
2009,09,24,16,09,19.70
2009,09,24,16,10,19.60
2009,09,24,16,11,19.50
2009,09,24,16,12,19.40
2009,09,24,16,13,19.40
2009,09,24,16,14,19.40
2009,09,24,16,15,19.40
2009,09,24,16,16,19.50
2009,09,24,16,17,19.60
2009,09,24,16,18,19.80
2009,09,24,16,19,19.90
2009,09,24,16,20,19.90
2009,09,24,16,21,19.90
2009,09,24,16,22,19.90
2009,09,24,16,23,19.80
2009,09,24,16,24,19.70
2009,09,24,16,25,19.70
2009,09,24,16,26,19.60
2009,09,24,16,27,19.40
2009,09,24,16,28,19.30
2009,09,24,16,29,19.30
2009,09,24,16,30,19.30
2009,09,24,16,31,19.20
2009,09,24,16,32,19.20
2009,09,24,16,33,19.20
2009,09,24,16,34,19.30
2009,09,24,16,35,19.30
2009,09,24,16,36,19.30
2009,09,24,16,37,19.30
2009,09,24,16,38,19.30
2009,09,24,16,39,19.10
2009,09,24,16,40,19.10
2009,09,24,16,41,19.10
2009,09,24,16,42,19.10
2009,09,24,16,43,19.10
2009,09,24,16,44,19.10
2009,09,24,16,45,19.10
2009,09,24,16,46,19.10
2009,09,24,16,47,19.10
2009,09,24,16,48,19.10
2009,09,24,16,49,19.10
2009,09,24,16,50,19.10
2009,09,24,16,51,19.00
2009,09,24,16,52,18.90
2009,09,24,16,53,18.90
2009,09,24,16,54,19.00
2009,09,24,16,55,19.10
2009,09,24,16,56,19.10
2009,09,24,16,57,19.10
2009,09,24,16,58,19.10
2009,09,24,16,59,19.10
2009,09,24,17,00,19.10
2009,09,24,17,01,19.10
2009,09,24,17,02,19.10
2009,09,24,17,03,19.20
2009,09,24,17,04,19.20
2009,09,24,17,05,19.10
2009,09,24,17,06,19.10
2009,09,24,17,07,19.10
2009,09,24,17,08,18.90
2009,09,24,17,09,18.70
2009,09,24,17,10,18.60
2009,09,24,17,11,18.60
2009,09,24,17,12,18.50
2009,09,24,17,13,18.40
2009,09,24,17,14,18.30
2009,09,24,17,15,18.30
2009,09,24,17,16,18.30
2009,09,24,17,17,18.20
2009,09,24,17,18,18.20
2009,09,24,17,19,18.20
2009,09,24,17,20,18.10
2009,09,24,17,21,17.90
2009,09,24,17,22,17.90
2009,09,24,17,23,17.90
2009,09,24,17,24,17.90
2009,09,24,17,25,17.90
2009,09,24,17,26,17.90
2009,09,24,17,27,17.90
2009,09,24,17,28,17.90
2009,09,24,17,29,17.90
2009,09,24,17,30,17.90
2009,09,24,17,31,17.90
2009,09,24,17,32,18.00
2009,09,24,17,33,18.10
2009,09,24,17,34,18.10
2009,09,24,17,35,18.10
2009,09,24,17,36,17.90